New Philadelphia, OH

8:42 AM EDT on July 30, 2016 (GMT -0400)
Clever

Weather History for KPHD - April, 2013

Change the Weather History Date:

Tuesday, April 9, 2013

  Actual Average Record
Temperature  
Mean Temperature 66 °F 49 °F  
Max Temperature 81 °F 61 °F 82 °F (2001)
Min Temperature 50 °F 37 °F 15 °F (1972)
Degree Days  
Heating Degree Days 0 16  
Month to date heating degree days 177 159  
Since 1 July heating degree days 5194 5145  
Cooling Degree Days 1 0  
Month to date cooling degree days 1 0  
Year to date cooling degree days 1 1  
Growing Degree Days 16 (Base 50)    
Moisture  
Dew Point 50 °F    
Average Humidity 57    
Maximum Humidity 77    
Minimum Humidity 36    
Precipitation  
Precipitation 0.00 in 0.11 in 1.42 in (1999)
Month to date precipitation 0.01 1.00  
Year to date precipitation 4.80 9.00  
Sea Level Pressure  
Sea Level Pressure 30.00 in    
Wind  
Wind Speed 6 mph (SW)    
Max Wind Speed 18 mph    
Max Gust Speed 26 mph    
Visibility 10 miles    
Events      
T = Trace of Precipitation, MM = Missing Value Source: NWS Daily Summary

Daily Weather History Graph

Daily Weather History Graph

Search for Another Location

Airport or City:

Trip Planner

Search our weather history database for the weather conditions in past years. The results will help you decide how hot, cold, wet, or windy it might be!

Date:

Astronomy

Apr. 09, 2013 Rise Set
Actual Time 6:56 AM EDT 7:58 PM EDT
Civil Twilight 6:28 AM EDT 8:26 PM EDT
Nautical Twilight 5:55 AM EDT 9:00 PM EDT
Astronomical Twilight 5:20 AM EDT 9:34 PM EDT
Moon 6:18 AM EDT (4/9) 7:33 PM EDT (4/9)
Length of Visible Light 13h 58m
Length of Day
13h 02m
Waning Crescent, 1% of the Moon is Illuminated
Apr 9
Waning Crescent
Apr 10
New
Apr 18
First Quarter
Apr 25
Full
May 2
Last Quarter

Hourly Weather History & Observations

Time (EDT) Temp. Dew Point Humidity Pressure Visibility Wind Dir Wind Speed Gust Speed Precip Events Conditions
12:53 AM 66.9 °F 51.1 °F 57% 29.99 in 10.0 mi WSW 6.9 mph - N/A   Overcast
1:53 AM 66.0 °F 51.1 °F 59% 30.00 in 10.0 mi West 8.1 mph - N/A   Overcast
2:53 AM 63.0 °F 51.1 °F 65% 30.00 in 10.0 mi West 3.5 mph - N/A   Clear
3:53 AM 63.0 °F 51.1 °F 65% 30.02 in 10.0 mi West 3.5 mph - N/A   Mostly Cloudy
4:53 AM 61.0 °F 52.0 °F 72% 30.04 in 10.0 mi WNW 4.6 mph - N/A   Scattered Clouds
5:53 AM 57.9 °F 48.0 °F 70% 30.06 in 10.0 mi NW 4.6 mph - N/A   Clear
6:53 AM 54.0 °F 45.0 °F 72% 30.08 in 10.0 mi Calm Calm - N/A   Clear
7:53 AM 52.0 °F 45.0 °F 77% 30.10 in 10.0 mi Calm Calm - N/A   Clear
8:53 AM 59.0 °F 45.0 °F 60% 30.11 in 10.0 mi Calm Calm - N/A   Clear
9:53 AM 62.1 °F 46.9 °F 58% 30.10 in 10.0 mi SSE 5.8 mph - N/A   Clear
10:53 AM 66.9 °F 48.0 °F 51% 30.08 in 10.0 mi ESE 8.1 mph - N/A   Clear
11:53 AM 71.1 °F 52.0 °F 51% 30.06 in 10.0 mi South 6.9 mph - N/A   Mostly Cloudy
12:53 PM 75.0 °F 53.1 °F 46% 30.02 in 10.0 mi South 9.2 mph 18.4 mph N/A   Partly Cloudy
1:53 PM 78.1 °F 52.0 °F 40% 29.99 in 10.0 mi SW 10.4 mph 21.9 mph N/A   Partly Cloudy
2:53 PM 78.1 °F 51.1 °F 39% 29.96 in 10.0 mi SW 9.2 mph - N/A   Overcast
3:53 PM 79.0 °F 51.1 °F 38% 29.94 in 10.0 mi SW 17.3 mph 25.3 mph N/A   Mostly Cloudy
4:53 PM 80.1 °F 51.1 °F 36% 29.91 in 10.0 mi SW 13.8 mph 23.0 mph N/A   Mostly Cloudy
5:53 PM 81.0 °F 52.0 °F 36% 29.91 in 10.0 mi SW 13.8 mph 20.7 mph N/A   Scattered Clouds
6:53 PM 80.1 °F 51.1 °F 36% 29.91 in 10.0 mi SW 10.4 mph 21.9 mph N/A   Clear
7:53 PM 77.0 °F 51.1 °F 40% 29.91 in 10.0 mi SW 5.8 mph - N/A   Clear
8:53 PM 75.9 °F 50.0 °F 40% 29.91 in 10.0 mi SW 5.8 mph - N/A   Clear
9:53 PM 73.9 °F 48.9 °F 41% 29.94 in 10.0 mi West 3.5 mph - N/A   Clear
10:53 PM 73.0 °F 50.0 °F 44% 29.93 in 10.0 mi Variable 3.5 mph - N/A   Clear
11:53 PM 71.1 °F 51.1 °F 49% 29.93 in 10.0 mi Calm Calm - N/A   Clear